Regional Weather Roundup
Issued by NWS

Home | Current Version | Previous Version | Graphics & Text | Print | Product List | Glossary On
Versions: 1 2 3 4 5 6 7 8 9 10 11 12 13 14 15 16 17 18 19 20 21 22 23 24 25 26 27 28 29 30 31 32 33 34 35 36 37 38 39 40 41 42 43 44 45 46 47 48 49 50
000
ASUS43 KOAX 041002
RWRNE

WEATHER ROUNDUP FOR NEBRASKA
NATIONAL WEATHER SERVICE OMAHA NE
500 AM CDT MON MAY 04 2015

NOTES: SATELLITE DATA IS BEING USED TO AUGMENT CLOUD COVER ABOVE
       12000 FEET.
       "FAIR" INDICATES FEW OR NO CLOUDS BELOW 12,000 FEET WITH NO
       SIGNIFICANT WEATHER AND/OR OBSTRUCTIONS TO VISIBILITY.

  * THESE STATIONS DO NOT REPORT WEATHER SUCH AS RAIN...SNOW OR FOG.

NEZ001>004-019>022-054>056-041100-
NEBRASKA PANHANDLE

CITY           SKY/WX    TMP DP  RH WIND       PRES   REMARKS
SCOTTSBLUFF    MOCLDY    51  38  60 E8        30.10S
ALLIANCE       LGT RAIN  48  41  76 E9        30.10S
CHADRON        LGT RAIN  47  42  83 NE9       30.11R
KIMBALL        MOCLDY    46  39  78 SE5       30.09R
SIDNEY         MOCLDY    50  38  63 E6        30.10S
$$

NEZ057>060-069>072-079>082-041100-
SOUTHWEST NEBRASKA

CITY           SKY/WX    TMP DP  RH WIND       PRES   REMARKS
NORTH PLATTE   CLOUDY    53  38  56 NE3       30.07F
IMPERIAL       CLOUDY    50  37  61 N9        30.04F
MCCOOK         CLOUDY    59  37  44 N18G28    29.97F
$$

NEZ005>010-023>029-035>040-094-041100-
NORTH CENTRAL NEBRASKA

CITY           SKY/WX    TMP DP  RH WIND       PRES   REMARKS
VALENTINE      PTCLDY    48  31  51 E3        30.11R
AINSWORTH      PTCLDY    46  31  57 NE6       30.10R
BROKEN BOW     CLOUDY    57  35  43 NE9       30.05R
ORD            CLOUDY    57  31  37 N10       30.03R
$$

NEZ041-046>049-061>064-073>077-083>087-041100-
SOUTH CENTRAL NEBRASKA

CITY           SKY/WX    TMP DP  RH WIND       PRES   REMARKS
GRAND ISLAND   CLOUDY    61  40  45 NE9       30.02R
AURORA         CLOUDY    60  42  52 NE20      29.99R
HASTINGS       CLOUDY    57  47  69 NE17      29.97R
KEARNEY *      CLOUDY    57  41  54 N18       29.99F
$$

NEZ011>018-030>034-042>045-041100-
NORTHEAST NEBRASKA

CITY           SKY/WX    TMP DP  RH WIND       PRES   REMARKS
NORFOLK        CLOUDY    59  33  37 NE16G23   30.02R
ALBION         CLOUDY    57  31  37 N15G22    30.02F
BLAIR          CLOUDY    58  47  65 N8        29.97R
COLUMBUS *     MOCLDY    57  37  47 NE16G24   30.00S
FREMONT        CLOUDY    58  47  67 N7        29.99R
TEKAMAH        MOCLDY    58  45  62 N17       29.98R
$$

NEZ050>053-065>068-078-088>093-041100-
SOUTHEAST NEBRASKA

CITY           SKY/WX    TMP DP  RH WIND       PRES   REMARKS
LINCOLN        TSTM      58  52  80 NE13      29.98R
OMAHA EPPLEY   CLOUDY    59  52  77 N12       29.96R
BEATRICE       CLOUDY    62  55  77 E5        29.92S
FALLS CITY     CLOUDY    66  55  67 S9        29.88F
NEBRASKA CITY  CLOUDY    56  55  95 N7        29.93S
PLATTSMOUTH    CLOUDY    58  55  88 N5        29.94R
$$

NEZ044-045-051>053-067-041100-
OMAHA AREA

CITY           SKY/WX    TMP DP  RH WIND       PRES   REMARKS
OMAHA EPPLEY   CLOUDY    59  52  77 N12       29.96R
BLAIR          CLOUDY    58  47  65 N8        29.97R
FREMONT        CLOUDY    58  47  67 N7        29.99R
OFFUTT AFB     CLOUDY    61  54  76 N8        29.94R
PLATTSMOUTH    CLOUDY    58  55  88 N5        29.94R
WAHOO          PTSUNNY   57  49  75 N9        29.98R
$$


USA.gov is the U.S. government's official web portal to all federal, state and local government web resources and services.